Location: Beuvrequen
(50.8014°N, 1.6652°E)
Time: 03:40:50
(UTC+00:00)

SeaSat 1 - Pass Details

Date: 16 October 2021
Orbit: 743 x 747 km, 108.0° (Epoch: 28 November)

Event Time Altitude Azimuth Distance (km) Brightness Sun altitude
Exits shadow 18:34:26 11° 44° (NE) 2,183 4.5 -15.9°
Maximum altitude 18:35:46 12° 27° (NNE) 2,106 4.6 -16.1°
Drops below altitude 10° 18:37:45 10° 4° (N) 2,276 5.0 -16.4°
Sets 18:41:23 0° 336° (NNW) 3,204 6.2 -17.0°
